User: anonymous   Login
Location: Church of God
(46.7283°N, 116.9983°W)
Time: 08:01:38
(UTC+00:00)
Language:

Cosmos 2026 Rocket - Orbit

View from above orbital plane
View from above orbital plane
View from above satellite
View from above satellite

Ground track
Ground track

The orbit is defined by the following mean orbital elements,

1 20046U          26140.19885431 +.00000000 +00000-0 +61674-4 0 00005
2 20046  82.9386  33.5376 0040593 288.0455  71.6283 13.78632329    01
Epoch (UTC): 20 May 2026 04:46:21
Eccentricity: 0.0040593
inclination: 82.9386°
perigee height: 939 km
apogee height: 999 km
right ascension of ascending node: 33.5376°
argument of perigee: 288.0455°
revolutions per day: 13.78632329
mean anomaly at epoch: 71.6283°

The dashed part of the orbit path shows where the satellite is in the earth's shadow,  

DLR